Weather History for Resolute, NU

Change the Weather History Date:

Monday, February 27, 2012

  Actual Average Record
Temperature  
Mean Temperature -29 °F -  
Max Temperature -27 °F -18 °F 15 °F (2006)
Min Temperature -31 °F -28 °F -50 °F (1997)
Degree Days  
Heating Degree Days 94    
Moisture  
Dew Point -38 °F    
Average Humidity 64    
Maximum Humidity 68    
Minimum Humidity 46    
Precipitation  
Precipitation 0.01 in - - ()
Sea Level Pressure  
Sea Level Pressure 29.88 in    
Wind  
Wind Speed 7 mph ()    
Max Wind Speed 12 mph    
Max Gust Speed -    
Visibility 9.8 miles    
Events Snow    
Averages and records for this station are not official NWS values.
T = Trace of Precipitation, MM = Missing Value Source: Averaged Metar Reports

Daily Weather History Graph

Daily Weather History Graph

Search for Another Location

Airport:

Trip Planner

Search our weather history database for the weather conditions in past years. The results will help you decide how hot, cold, wet, or windy it might be!

Date:

Astronomy

Feb. 27, 2012 Rise Set
Actual Time 8:28 AM CST 4:38 PM CST
Civil Twilight 7:05 AM CST 6:02 PM CST
Nautical Twilight 5:34 AM CST 7:34 PM CST
Astronomical Twilight 3:53 AM CST 9:16 PM CST
Moon No Moon Rise No Moon Set
Length of Visible Light 10h 57m
Length of Day
8h 09m
Waxing Crescent, 29% of the Moon is Illuminated
Feb 27
Waxing Crescent
Feb 29
First Quarter
Mar 8
Full
Mar 14
Last Quarter
Mar 22
New

Hourly Weather History & Observations

Time (CST) Temp. Windchill Dew Point Humidity Pressure Visibility Wind Dir Wind Speed Gust Speed Precip Events Conditions
12:00 AM -30 °F - -37 °F 52% 29.99 in 10 mi West 11.5 mph - - Snow Snow
12:00 AM -29.2 °F -53.7 °F -36.4 °F 68% 29.99 in 10.0 mi West 11.5 mph - N/A   Partly Cloudy
1:00 AM -31.0 °F -50.3 °F -38.2 °F 68% 29.96 in 10.0 mi WNW 6.9 mph - N/A   Partly Cloudy
2:00 AM -31.0 °F -46.1 °F -38.2 °F 68% 29.95 in 10.0 mi WNW 4.6 mph - N/A   Partly Cloudy
3:00 AM -31.0 °F -48.4 °F -40.0 °F 62% 29.95 in 10.0 mi WNW 5.8 mph - N/A   Partly Cloudy
4:00 AM -31.0 °F -50.3 °F -38.2 °F 68% 29.94 in 10.0 mi WNW 6.9 mph - N/A   Partly Cloudy
5:00 AM -29.2 °F -48.1 °F -38.2 °F 62% 29.94 in 10.0 mi WNW 6.9 mph - N/A   Scattered Clouds
6:00 AM -30 °F - -38 °F 46% 29.92 in 12 mi West 11.5 mph - - Snow Snow
6:00 AM -29.2 °F -53.7 °F -38.2 °F 62% 29.92 in 12.0 mi West 11.5 mph - N/A   Scattered Clouds
7:00 AM -31.0 °F -48.4 °F -38.2 °F 68% 29.90 in 12.0 mi WNW 5.8 mph - N/A   Mostly Cloudy
8:00 AM -29.2 °F -46.2 °F -38.2 °F 62% 29.89 in 12.0 mi West 5.8 mph - N/A   Mostly Cloudy
9:00 AM -29.2 °F -41.2 °F -36.4 °F 68% 29.88 in 12.0 mi WSW 3.5 mph - N/A   Mostly Cloudy
9:48 AM - - - N/A% - 10.0 mi West 8.1 mph - N/A   Unknown
10:00 AM -29.2 °F -48.1 °F -36.4 °F 68% 29.87 in 10.0 mi West 6.9 mph - N/A Snow Light Snow
11:00 AM -29.2 °F -48.1 °F -36.4 °F 68% 29.86 in 12.0 mi WSW 6.9 mph - N/A Snow Light Snow
12:00 PM -29 °F - -37 °F 49% 29.85 in 12 mi West 6.9 mph - - Snow Light Snow
12:00 PM -29.2 °F -48.1 °F -36.4 °F 68% 29.85 in 12.0 mi West 6.9 mph - N/A Snow Light Snow
1:00 PM -29.2 °F -44.0 °F -36.4 °F 68% 29.85 in 15.0 mi West 4.6 mph - N/A Snow Light Snow
2:00 PM -29.2 °F -44.0 °F -38.2 °F 62% 29.84 in 12.0 mi WSW 4.6 mph - N/A Snow Light Snow
2:43 PM - - - N/A% - 12.0 mi West 2.3 mph - N/A   Mostly Cloudy
3:00 PM -29.2 °F -46.2 °F -38.2 °F 62% 29.84 in 10.0 mi SW 5.8 mph - N/A   Mostly Cloudy
4:00 PM -29.2 °F -53.7 °F -36.4 °F 68% 29.83 in 10.0 mi WSW 11.5 mph - N/A Snow Low Drifting Snow
5:00 PM -29.2 °F - -38.2 °F 62% 29.83 in 10.0 mi Calm Calm - N/A   Mostly Cloudy
6:00 PM -30 °F - -38 °F 46% 29.82 in 10 mi WSW 8.1 mph - - Snow Snow
6:00 PM -31.0 °F -51.9 °F -38.2 °F 68% 29.82 in 10.0 mi WSW 8.1 mph - N/A   Mostly Cloudy
7:00 PM -31.0 °F -43.3 °F -38.2 °F 68% 29.82 in 8.0 mi South 3.5 mph - N/A   Mostly Cloudy
7:24 PM - - - N/A% - 8.0 mi SW 2.3 mph - N/A   Unknown
8:00 PM -29.2 °F -46.2 °F -36.4 °F 68% 29.81 in 6.0 mi SW 5.8 mph - N/A Snow Light Snow
8:43 PM - - - N/A% - 6.0 mi SSW 5.8 mph - N/A   Unknown
9:00 PM -29.2 °F -48.1 °F -36.4 °F 68% 29.80 in 5.0 mi SW 6.9 mph - N/A Snow Light Snow
9:47 PM - - - N/A% - 3.0 mi SW 5.8 mph - N/A   Unknown
10:00 PM -29.2 °F -46.2 °F -36.4 °F 68% 29.80 in 3.0 mi WSW 5.8 mph - N/A Snow Light Snow
10:37 PM - - - N/A% - 12.0 mi WSW 4.6 mph - N/A   Scattered Clouds
11:00 PM -31.0 °F -48.4 °F -38.2 °F 68% 29.80 in 12.0 mi SW 5.8 mph - N/A   Mostly Cloudy
11:28 PM - - - N/A% - 4.0 mi WSW 4.6 mph - N/A   Unknown